FENGYUN 1C DEB, 29737

Orbit data source: Space-Track

FENGYUN 1C DEB, 29737 is space debris in SSO originally from a launch on Mon, 10 May 1999 UTC launched from the Taiyaun Space Center, China (TSC). Fengyun 1C debris stems from the Chinese weather satellite Fengyun-1C, which was intentionally destroyed by a Chinese anti-satellite missile in 2007. This event dramatically increased the amount of space debris, with thousands of trackable fragments posing hazards to satellites and human spaceflight. The Fengyun 1C debris cloud has become a focal point in discussions about space sustainability and the need for international regulations to prevent the creation of new debris.

Loading next visibility...
Identifier
29737, 1999-025AB
Orbit
SSO
Country
Flag of CNCN / PRC
Related business
Manufacturer
Unknown
Mission
Spacecraft
Bus & Motor
Unknown
Mass
Unknown
Launch date (UTC)
1999-05-10 (27 years ago)
Launch vehicle
Unknown
Launch site
Taiyaun Space Center, China (TSC)
Object type
Payload
Rocket body
Debris
Shape & HBR
Unknown shape, 0.1 m
Radar Cross Section
Small (<0.1 m²)

Expand to show TLE details & history
Last TLE update: 11 hours ago

TLE from 11 hours ago
0 FENGYUN 1C DEB
1 29737U 99025AB  26121.28640649  .00000778  00000-0  16699-2 0  9999
2 29737  99.5823  58.4441 0692876 196.4206 323.7083 12.66055818886345
Epoch: 2026-05-01T06:52Z
TLE epoch observation values (Epoch: 2026-05-01T06:52:25.520Z)
Latitude
24.57327°
Longitude
-79.47895°
Altitude
980.731 km
Speed
7.56 km/s
True Right ascension
16h 11m 23s
True Declination
24° 26' 51"
Sunlit
Object was in full shadow at epoch
Visualization orbit readout
Latitude
Unknown
Longitude
Unknown
Altitude
Unknown
Speed
Unknown
Apparent Right ascension
Unknown
Apparent Declination
Unknown
Sunlit
N/A
Visualization observer readout
Local Sidereal Time
01:44:53
Azimuth
Unknown
Elevation
Unknown
Doppler factor
Unknown
Orbital elements
Apogee altitude
1,934.051 km
Perigee altitude
856.826 km
Semi-major axis
7,773.576 km
Eccentricity
0.06929
Inclination
99.5823°
RAAN
58.4441°
Arg. of periapsis
196.4206°
True anomaly
318.66383°
Mean anomaly
323.7083°
Eccentric anomaly
321.22194°
Mean motion
3.16674 °/min
Orbital period
113.68 mins
BSTAR
0.0016699
Loading maneuver chart data...
Computing Atmospheric mass density...
Loading historical data...
Loading historical data...
Loading historical data...
Loading historical data...
Loading historical data...
Loading historical data...
Loading historical data...

Documentation

Showing up to 5 results
|